Location: *
(37.9500°N, 27.3666°E)
Time: 05:02:15
(UTC+00:00)

Cosmos 2123 Rocket - Pass Details

Date: 24 October 2021
Orbit: 961 x 992 km, 82.9° (Epoch: 03 December)

Event Time Altitude Azimuth Distance (km) Brightness Sun altitude
Rises 16:10:44 0° 355° (N) 3,712 7.0 -10.5°
Reaches altitude 10° 16:13:18 10° 357° (N) 2,757 6.3 -11.0°
Maximum altitude 16:19:37 73° 82° (E) 1,030 4.0 -12.2°
Drops below altitude 10° 16:25:51 10° 167° (SSE) 2,722 6.3 -13.4°
Sets 16:28:21 0° 169° (S) 3,662 6.9 -13.9°
